Regional Weather Roundup
Issued by NWS

Home | Current Version | Previous Version | Text Only | Print | Product List | Glossary Off
Versions: 1 2 3 4 5 6 7 8 9 10 11 12 13 14 15 16 17 18 19 20 21 22 23 24 25 26 27 28 29 30 31 32 33 34 35 36 37 38 39 40 41 42 43 44 45 46 47 48 49 50

000
ASUS43 KMPX 280601
RWRMN
WEATHER ROUNDUP FOR MINNESOTA
NATIONAL WEATHER SERVICE TWIN CITIES/CHANHASSEN MN
100 AM CDT MON MAY 28 2018


NOTE: "FAIR" INDICATES FEW OR NO CLOUDS BELOW 12,000 FEET WITH NO
SIGNIFICANT WEATHER AND/OR OBSTRUCTIONS TO VISIBILITY. N/A MEANS
CURRENT SKY AND/OR WEATHER CONDITIONS ARE NOT AVAILABLE.

MNZ060>063-068>070-280700-
   Twin Cities Metro

CITY           SKY/WX    TMP DP  RH WIND       PRES   REMARKS
TWIN CITIES    FAIR      85  56  37 S10       29.82S
6HR MIN TEMP:  83; 6HR MAX TEMP:  91;

ST PAUL        FAIR      74  60  61 S5        29.82R
CRYSTAL        MOCLDY    84  54  35 S10       29.80R
BLAINE         FAIR      82  55  39 S9        29.82R
LAKEVILLE      FAIR      81  55  41 S10G17    29.83R
EDEN PRAIRIE   MOCLDY    82  57  42 S8        29.82R
6HR MIN TEMP:  82; 6HR MAX TEMP:  90;

SOUTH ST PAUL  FAIR      80  55  40 SE5       29.82S
LAKE ELMO      FAIR      77  59  53 S7        29.84S
$$
MNZ001>005-007-008-013>017-022>024-027-028-280700-
   Northwest Minnesota

CITY           SKY/WX    TMP DP  RH WIND       PRES   REMARKS
BEMIDJI        FAIR      69  57  67 N6        29.89S
HALLOCK        FAIR      66  59  77 NE3       29.90R
ROSEAU         FAIR      63  57  82 CALM      29.92R
WARROAD        FAIR      59  55  88 CALM      29.92R
THIEF RVR FALL FAIR      68  57  68 E7        29.92R
CROOKSTON      FAIR      70  59  68 E5        29.91R
FOSSTON        CLOUDY    66  57  72 NE5       29.90R
DETROIT LAKES  FAIR      70  63  78 NE6       29.88R
MOORHEAD       FAIR      70  61  73 N7        29.87R
PARK RAPIDS    FAIR      66  62  87 CALM      29.88R
MAHNOMEN       FAIR      68  59  74 NE7       29.88R
$$
MNZ006-009>011-018-025>026-280700-
   North Central Minnesota

CITY           SKY/WX    TMP DP  RH WIND       PRES   REMARKS
BAUDETTE         N/A    N/A N/A N/A MISG      29.91R
FLAG ISLAND    FAIR      66  63  88 CALM      29.90R
INTL FALLS     FAIR      55  55 100 CALM      29.90S FOG
6HR MIN TEMP:  55; 6HR MAX TEMP:  79;

WASKISH        FAIR      64  57  77 CALM      29.90S
BIG FORK       CLOUDY    64  63  94 CALM      29.89S
LONGVILLE      MOCLDY    64  64 100 CALM      29.88S FOG
GRAND RAPIDS   TSTM      65  64  97 CALM      29.90F
ORR            MOCLDY    63  57  82 CALM      29.87S
COOK           MOCLDY    63  63 100 CALM      29.90S
WALKER         LGT RAIN  64  63  98 CALM      29.88S
$$
MNZ012-019>021-037-280700-
   Northeast Minnesota

CITY           SKY/WX    TMP DP  RH WIND       PRES   REMARKS
DULUTH         TSTM      68  61  78 S5        29.92F
6HR MIN TEMP:  67; 6HR MAX TEMP:  80; 6HR PCP:  0.49;

ELY            FAIR      64  57  77 CALM      29.90S
HIBBING        LGT RAIN  65  62  90 CALM      29.88F
EVELETH        TSTM      64  63  94 SW3       29.92R
DULUTH HARBOR  TSTM      57  54  88 SE3       29.92S
TWO HARBORS    RAIN      64  61  88 SW7       29.89R
SILVER BAY     LGT RAIN  64  64 100 CALM      29.88S
GRAND MARAIS     N/A     43  40  89 CALM      29.86R
G MARAIS ARPRT FAIR      63  54  72 CALM      29.91S
$$
MNZ029>031-032-039>041-046>048-054>057-064-280700-
   West Central Minnesota

CITY           SKY/WX    TMP DP  RH WIND       PRES   REMARKS
FERGUS FALLS   FAIR      73  61  64 E14G20    29.78R
WHEATON        CLOUDY    70  61  73 N3        29.82R
MORRIS         CLOUDY    72  63  73 NE7       29.80R
ALEXANDRIA     FAIR      74  61  63 NE8       29.85R
ELBOW LAKE     FAIR      74  62  66 CALM      29.82R
WADENA         FAIR      66  61  82 NE3       29.86R
GLENWOOD       FAIR      70  63  78 N9        29.84R
BENSON         CLOUDY    73  59  60 NE3       29.82R
ORTONVILLE     CLOUDY    73  63  68 W5        29.80S
MADISON        CLOUDY    73  57  56 S7        29.80S
WILLMAR        FAIR      73  57  56 S5        29.83S
$$
MNZ033>034-036-042>043-049>051-058-059-280700-
   Central Minnesota

CITY           SKY/WX    TMP DP  RH WIND       PRES   REMARKS
ST CLOUD       FAIR      81  56  42 S3        29.81R
6HR MIN TEMP:  72; 6HR MAX TEMP:  90;

SAUK CENTRE    FAIR      71  61  71 NE7       29.83R
PAYNESVILLE    FAIR      77  58  52 S6        29.82R
AITKIN         FAIR      68  59  73 CALM      29.86S
PINE RIVER     FAIR      64  57  77 CALM      29.90F
BRAINERD       FAIR      73  60  63 NE8       29.86S
STAPLES        FAIR      72  59  64 NE6       29.86S
LONG PRAIRIE   FAIR      70  61  73 N3        29.85R
LITTLE FALLS   FAIR      70  61  73 NE3       29.84S
LITCHFIELD     FAIR      82  57  42 SE5       29.82S
BUFFALO        FAIR      80  55  42 S7        29.83R
MAPLE LAKE     FAIR      80  59  49 S3        29.83R
HUTCHINSON     FAIR      82  60  46 S7        29.84R
$$
MNZ037-044-045-052-053-280700-
   East Central Minnesota

CITY           SKY/WX    TMP DP  RH WIND       PRES   REMARKS
PRINCETON      FAIR      70  63  78 CALM      29.82S
MORA           FAIR      70  59  68 CALM      29.87R
CAMBRIDGE      MOCLDY    73  61  64 CALM      29.83R
RUSH CITY      FAIR      68  61  78 CALM      29.83S
MOOSE LAKE     MOCLDY    68  59  73 NE3       29.88S
HINCKLEY       MOCLDY    72  61  68 NE10      29.86R
CLOQUET        MOCLDY    68  61  77 E5        29.89F
MCGREGOR       MOCLDY    70  61  73 N8        29.89R
$$
MNZ071>073-080-081-089-090-097-098-280700-
   Southwest Minnesota

CITY           SKY/WX    TMP DP  RH WIND       PRES   REMARKS
MONTEVIDEO     MOCLDY    79  55  44 W5        29.80S
CANBY          CLOUDY    77  59  54 CALM      29.83R
MARSHALL       MOCLDY    82  57  42 SW14      29.82S
REDWOOD FALLS  MOCLDY    78  61  55 S9        29.81R
OLIVIA         MOCLDY    77  61  57 S5        29.82R
PIPESTONE      CLOUDY    75  57  53 W3        29.88R
WINDOM         CLOUDY    79  54  41 S6        29.86R
WORTHINGTON    CLOUDY    82  57  42 SW14      29.88S
JACKSON        MOCLDY    77  59  53 S7        29.89R
SLAYTON        CLOUDY    79  55  44 SW9       29.88S
$$
MNZ065>067-074>077-082>085-091>093-280700-
   South Central Minnesota

CITY           SKY/WX    TMP DP  RH WIND       PRES   REMARKS
MANKATO        FAIR      82  58  43 S12       29.86R
NEW ULM        MOCLDY    82  54  36 S15       29.84R
ST JAMES       CLOUDY    82  54  36 S16       29.86R
FAIRMONT       CLOUDY    79  60  52 S6        29.89R
GLENCOE        FAIR      82  57  42 S5        29.83R
FARIBAULT      FAIR      81  55  41 CALM      29.87R
OWATONNA       FAIR      81  57  44 S14       29.87R
WASECA         FAIR      79  55  44 S12       29.88R
ALBERT LEA     FAIR      79  52  38 S8        29.89R
$$
MNZ078>079-086>088-094>096-280700-
   Southeast Minnesota

CITY           SKY/WX    TMP DP  RH WIND       PRES   REMARKS
ROCHESTER      FAIR      75  58  55 S13       29.89R
6HR MIN TEMP:  73; 6HR MAX TEMP:  85;

RED WING       FAIR      81  48  32 CALM      29.83R
STANTON        FAIR      80  55  42 S5        29.84R
DODGE CENTER   FAIR      75  55  50 S10       29.89R
WINONA         FAIR      72  63  73 CALM      29.85R
AUSTIN         FAIR      75  57  53 S6        29.89R
PRESTON        FAIR      73  57  56 S6        29.90R
$$
ABBREVIATIONS USED IN REMARKS
   TC - TEMPERATURES IN CELSIUS
  WCI - WIND CHILL INDEX
   HX - HEAT INDEX
  VSB - VISIBILITY
$$




USA.gov is the U.S. government's official web portal to all federal, state and local government web resources and services.